TimePDT,TemperatureF,Dew PointF,Humidity,Sea Level PressureIn,VisibilityMPH,Wind Direction,Wind SpeedMPH,Gust SpeedMPH,PrecipitationIn,Events,Conditions,WindDirDegrees,DateUTC
12:52 AM,66.0,42.1,42,30.05,10.0,Calm,Calm,-,N/A,,Clear,0,2013-10-06 07:52:00
1:52 AM,66.9,46.0,47,30.05,10.0,South,3.5,-,N/A,,Clear,190,2013-10-06 08:52:00
2:52 AM,64.9,48.9,56,30.05,10.0,Calm,Calm,-,N/A,,Clear,0,2013-10-06 09:52:00
3:52 AM,64.0,46.9,54,30.04,10.0,WNW,3.5,-,N/A,,Clear,300,2013-10-06 10:52:00
4:52 AM,64.0,44.1,48,30.03,10.0,Calm,Calm,-,N/A,,Clear,0,2013-10-06 11:52:00
5:52 AM,62.1,45.0,53,30.04,10.0,Calm,Calm,-,N/A,,Clear,0,2013-10-06 12:52:00
6:52 AM,62.1,37.0,39,30.04,10.0,Calm,Calm,-,N/A,,Partly Cloudy,0,2013-10-06 13:52:00
7:52 AM,68.0,41.0,37,30.04,10.0,Calm,Calm,-,N/A,,Partly Cloudy,0,2013-10-06 14:52:00
8:52 AM,77.0,36.0,23,30.06,10.0,Calm,Calm,-,N/A,,Partly Cloudy,0,2013-10-06 15:52:00
9:52 AM,84.0,28.9,14,30.05,10.0,Calm,Calm,-,N/A,,Partly Cloudy,0,2013-10-06 16:52:00
10:52 AM,90.0,25.0,10,30.04,10.0,WNW,3.5,-,N/A,,Partly Cloudy,300,2013-10-06 17:52:00
11:52 AM,93.0,21.0,7,30.02,10.0,SSW,3.5,-,N/A,,Partly Cloudy,210,2013-10-06 18:52:00
12:52 PM,93.0,21.9,8,30.00,10.0,NW,9.2,-,N/A,,Scattered Clouds,310,2013-10-06 19:52:00
1:52 PM,91.0,34.0,13,29.97,10.0,NW,12.7,-,N/A,,Scattered Clouds,320,2013-10-06 20:52:00
2:52 PM,88.0,42.1,20,29.96,10.0,NW,17.3,-,N/A,,Scattered Clouds,320,2013-10-06 21:52:00
3:52 PM,86.0,48.9,28,29.94,10.0,NNW,16.1,-,N/A,,Mostly Cloudy,330,2013-10-06 22:52:00
4:52 PM,86.0,44.1,23,29.94,10.0,NW,15.0,-,N/A,,Mostly Cloudy,320,2013-10-06 23:52:00
5:52 PM,82.0,46.9,29,29.94,10.0,NNW,13.8,-,N/A,,Mostly Cloudy,340,2013-10-07 00:52:00
6:52 PM,80.1,45.0,29,29.94,10.0,NNW,11.5,-,N/A,,Mostly Cloudy,340,2013-10-07 01:52:00
7:52 PM,78.1,45.0,31,29.95,10.0,NNW,8.1,-,N/A,,Mostly Cloudy,330,2013-10-07 02:52:00
8:52 PM,73.9,52.0,46,29.96,10.0,NW,4.6,-,N/A,,Scattered Clouds,320,2013-10-07 03:52:00
9:52 PM,75.0,52.0,44,29.97,10.0,NW,4.6,-,N/A,,Mostly Cloudy,320,2013-10-07 04:52:00
10:52 PM,72.0,53.1,51,29.97,10.0,Calm,Calm,-,N/A,,Mostly Cloudy,0,2013-10-07 05:52:00
11:52 PM,69.1,55.9,63,29.96,10.0,Calm,Calm,-,N/A,,Mostly Cloudy,0,2013-10-07 06:52:00